Location: Colonia Mina de C?rbuni
(46.1667°N, 22.7167°E)
Time: 06:06:43
(UTC+00:00)

Cosmos 1825 - Pass Details

Date: 04 February 2023
Orbit: 481 x 488 km, 82.5° (Epoch: 21 March)

Event Time Altitude Azimuth Distance (km) Brightness Sun altitude
Rises 16:16:07 0° 165° (SSE) 2,568 5.8 -7.1°
Maximum altitude 16:21:41 32° 92° (E) 871 2.8 -8.0°
Drops below altitude 10° 16:25:02 10° 28° (NNE) 1,708 4.4 -8.5°
Sets 16:27:18 0° 18° (NNE) 2,597 5.4 -8.9°
